GW2011 Weather Reports


Display with metric or nautical units.
time (UTC)temp
F
wind
direction
speed
MPH
gust
MPH
rain 1hr
in
rain 24hr
in
rain mn
in
humidity
%
barometer
mb
20260901210040 82 0 0.0 0.0 0.00 0.00 0.00 55 1010.8
20260901205519 83 0 0.0 0.0 0.00 0.00 0.00 53 1010.7
20260901205018 83 0 0.0 0.0 0.00 0.00 0.00 52 1010.9
20260901204539 83 0 0.0 0.0 0.00 0.00 0.00 50 1011.0
20260901204018 83 0 0.0 0.0 0.00 0.00 0.00 52 1010.9
20260901203520 83 0 0.0 0.0 0.00 0.00 0.00 53 1011.1
20260901203056 83 0 0.0 0.0 0.00 0.00 0.00 50 1011.0
20260901202518 83 0 0.0 1.0 0.00 0.00 0.00 56 1011.0
20260901202022 83 0 0.0 1.0 0.00 0.00 0.00 54 1010.7
20260901201540 83 0 0.0 0.0 0.00 0.00 0.00 51 1010.6
20260901201021 83 0 0.0 0.0 0.00 0.00 0.00 52 1010.9
20260901200519 83 0 0.0 0.0 0.00 0.00 0.00 48 1011.0
20260901200041 82 0 0.0 0.0 0.00 0.00 0.00 49 1011.0
20260901195520 82 0 0.0 1.0 0.00 0.00 0.00 50 1010.9
20260901195022 82 0 0.0 2.0 0.00 0.00 0.00 49 1011.1
20260901194542 82 157 0.0 3.0 0.00 0.00 0.00 48 1011.2
20260901194020 82 157 1.0 3.0 0.00 0.00 0.00 51 1011.3
20260901193519 82 129 1.0 3.0 0.00 0.00 0.00 48 1011.3
20260901193041 82 126 1.0 2.0 0.00 0.00 0.00 52 1011.3
20260901192519 81 126 1.0 2.0 0.00 0.00 0.00 51 1011.3
20260901192018 81 0 1.0 3.0 0.00 0.00 0.00 50 1011.4
20260901191538 80 126 1.0 3.0 0.00 0.00 0.00 56 1011.3
20260901191018 80 126 1.0 3.0 0.00 0.00 0.00 54 1011.3
20260901190519 81 126 0.0 1.0 0.00 0.00 0.00 54 1011.3
20260901190037 81 126 0.0 2.0 0.00 0.00 0.00 55 1011.3
20260901185520 81 126 0.0 3.0 0.00 0.00 0.00 55 1011.3
20260901185017 81 126 1.0 3.0 0.00 0.00 0.00 54 1011.3
20260901184539 80 126 2.0 3.0 0.00 0.00 0.00 55 1011.5
20260901184019 80 126 2.0 4.0 0.00 0.00 0.00 53 1011.3
20260901183524 80 126 2.0 4.0 0.00 0.00 0.00 58 1011.3
20260901183049 80 126 2.0 3.0 0.00 0.00 0.00 56 1011.4
20260901182521 80 126 1.0 2.0 0.00 0.00 0.00 54 1011.3
20260901182020 80 126 1.0 2.0 0.00 0.00 0.00 54 1011.3
20260901181540 80 0 0.0 1.0 0.00 0.00 0.00 57 1011.4
20260901181022 80 126 0.0 1.0 0.00 0.00 0.00 53 1011.5
20260901180520 79 0 0.0 1.0 0.00 0.00 0.00 54 1011.8
20260901180040 79 126 0.0 2.0 0.00 0.00 0.00 55 1011.7
20260901175520 79 126 1.0 2.0 0.00 0.00 0.00 56 1011.8
20260901175018 78 126 0.0 3.0 0.00 0.00 0.00 55 1011.8
20260901174538 78 126 2.0 4.0 0.00 0.00 0.00 61 1012.0
20260901174020 78 126 3.0 4.0 0.00 0.00 0.00 61 1012.1
20260901173518 78 124 1.0 5.0 0.00 0.00 0.00 64 1011.9
20260901173044 78 125 3.0 5.0 0.00 0.00 0.00 64 1011.9
20260901172519 77 121 3.0 4.0 0.00 0.00 0.00 64 1011.9
20260901172022 77 131 2.0 4.0 0.00 0.00 0.00 63 1012.1
20260901171545 77 128 3.0 4.0 0.00 0.00 0.00 66 1012.1
20260901171019 76 131 2.0 4.0 0.00 0.00 0.00 66 1012.0
20260901170519 76 131 0.0 4.0 0.00 0.00 0.00 65 1012.0
20260901170040 76 132 3.0 4.0 0.00 0.00 0.00 68 1012.0
20260901165520 76 132 2.0 5.0 0.00 0.00 0.00 66 1012.1
20260901165018 75 141 3.0 5.0 0.00 0.00 0.00 68 1011.9
20260901164547 76 138 3.0 4.0 0.00 0.00 0.00 69 1012.0
20260901164019 75 155 1.0 4.0 0.00 0.00 0.00 68 1011.9
20260901163523 75 163 0.0 2.0 0.00 0.00 0.00 70 1011.9
20260901163039 75 0 0.0 0.0 0.00 0.00 0.00 70 1011.9
20260901162519 75 0 0.0 0.0 0.00 0.00 0.00 68 1012.1
20260901162018 74 0 0.0 0.0 0.00 0.00 0.00 70 1012.1
20260901161549 74 0 0.0 0.0 0.00 0.00 0.00 69 1012.1
20260901161022 74 0 0.0 0.0 0.00 0.00 0.00 69 1012.2
20260901160517 74 0 0.0 0.0 0.00 0.00 0.00 70 1012.1
20260901160038 73 0 0.0 0.0 0.00 0.00 0.00 68 1012.1
20260901155520 73 0 0.0 0.0 0.00 0.00 0.00 69 1012.0
20260901155018 73 0 0.0 0.0 0.00 0.00 0.00 68 1012.1
20260901154537 73 0 0.0 0.0 0.00 0.00 0.00 68 1012.2
20260901154018 73 0 0.0 0.0 0.00 0.00 0.00 68 1012.2
20260901153520 73 0 0.0 0.0 0.00 0.00 0.00 68 1012.1
20260901153044 73 0 0.0 0.0 0.00 0.00 0.00 68 1012.2
20260901152519 73 0 0.0 0.0 0.00 0.00 0.00 68 1012.3
20260901152020 73 0 0.0 0.0 0.00 0.00 0.00 68 1012.2
20260901151540 73 0 0.0 0.0 0.00 0.00 0.00 70 1012.3
20260901151018 73 0 0.0 0.0 0.00 0.00 0.00 68 1012.2
20260901150525 74 0 0.0 0.0 0.00 0.00 0.00 68 1012.2
20260901150037 74 0 0.0 0.0 0.00 0.00 0.00 68 1012.1
20260901145518 73 0 0.0 0.0 0.00 0.00 0.00 70 1012.1
20260901145019 73 0 0.0 0.0 0.00 0.00 0.00 70 1012.2
20260901144540 72 0 0.0 0.0 0.00 0.00 0.00 71 1012.2
20260901144020 71 0 0.0 0.0 0.00 0.00 0.00 74 1012.3
20260901143524 71 0 0.0 0.0 0.00 0.00 0.00 74 1012.2
20260901143042 70 0 0.0 0.0 0.00 0.00 0.00 78 1012.2
20260901142521 70 0 0.0 0.0 0.00 0.00 0.00 80 1012.3
20260901142022 69 0 0.0 0.0 0.00 0.00 0.00 82 1012.3
20260901141545 69 0 0.0 0.0 0.00 0.00 0.00 84 1012.4
20260901141021 68 0 0.0 0.0 0.00 0.00 0.00 85 1012.3
20260901140522 68 0 0.0 0.0 0.00 0.00 0.00 86 1012.2
20260901140040 67 0 0.0 0.0 0.00 0.00 0.00 87 1012.2
20260901135524 67 0 0.0 0.0 0.00 0.00 0.00 88 1012.3
20260901135019 66 0 0.0 0.0 0.00 0.00 0.00 90 1012.4
20260901134539 65 0 0.0 0.0 0.00 0.00 0.00 91 1012.4
20260901134019 65 0 0.0 0.0 0.00 0.00 0.00 91 1012.3
20260901133518 64 0 0.0 1.0 0.00 0.00 0.00 91 1012.3
20260901133037 64 0 0.0 1.0 0.00 0.00 0.00 92 1012.3
20260901132520 63 0 0.0 0.0 0.00 0.00 0.00 93 1012.5
20260901132020 63 0 0.0 1.0 0.00 0.00 0.00 93 1012.4
20260901131539 63 0 0.0 1.0 0.00 0.00 0.00 93 1012.4
20260901131017 62 192 0.0 1.0 0.00 0.00 0.00 93 1012.3
20260901130517 62 0 0.0 1.0 0.00 0.00 0.00 93 1012.3
20260901130036 62 0 0.0 1.0 0.00 0.00 0.00 93 1012.2
20260901125521 61 0 0.0 1.0 0.00 0.00 0.00 93 1012.0
20260901125018 61 0 0.0 0.0 0.00 0.00 0.00 92 1011.9
20260901124540 61 0 0.0 0.0 0.00 0.00 0.00 93 1011.8
20260901124020 60 0 0.0 0.0 0.00 0.00 0.00 93 1011.8
20260901123522 60 0 0.0 1.0 0.00 0.00 0.00 92 1011.7
20260901123042 60 0 0.0 1.0 0.00 0.00 0.00 93 1011.7
20260901122522 60 0 0.0 1.0 0.00 0.00 0.00 92 1011.6
20260901122019 60 0 0.0 1.0 0.00 0.00 0.00 91 1011.6
20260901121539 60 0 0.0 1.0 0.00 0.00 0.00 92 1011.4
20260901121019 60 0 0.0 1.0 0.00 0.00 0.00 92 1011.6
20260901120518 60 0 0.0 0.0 0.00 0.00 0.00 92 1011.4
20260901120036 60 0 0.0 0.0 0.00 0.00 0.00 91 1011.4
20260901115523 60 0 0.0 0.0 0.00 0.00 0.00 91 1011.4
20260901115020 60 0 0.0 0.0 0.00 0.00 0.00 90 1011.3
20260901114540 60 0 0.0 0.0 0.00 0.00 0.00 91 1011.3
20260901114019 60 0 0.0 0.0 0.00 0.00 0.00 90 1011.3
20260901113520 60 0 0.0 0.0 0.00 0.00 0.00 90 1011.3
20260901113037 61 0 0.0 0.0 0.00 0.00 0.00 90 1011.2
20260901112521 61 0 0.0 0.0 0.00 0.00 0.00 90 1011.2
20260901112021 61 0 0.0 0.0 0.00 0.00 0.00 89 1011.1
20260901111538 62 0 0.0 0.0 0.00 0.00 0.00 89 1011.0
20260901111018 62 0 0.0 3.0 0.00 0.00 0.00 89 1011.2
20260901110520 62 0 0.0 3.0 0.00 0.00 0.00 91 1011.2
20260901110039 62 192 0.0 2.0 0.00 0.00 0.00 91 1011.1
20260901105520 62 0 0.0 6.0 0.00 0.00 0.00 91 1011.0
20260901105021 62 185 2.0 6.0 0.00 0.00 0.00 92 1011.0
20260901104541 62 153 0.0 3.0 0.00 0.00 0.00 93 1010.9
20260901104020 62 0 0.0 0.0 0.00 0.00 0.00 93 1010.8
20260901103519 62 0 0.0 0.0 0.00 0.00 0.00 92 1010.7
20260901103037 62 0 0.0 0.0 0.00 0.00 0.00 92 1010.9
20260901102525 62 0 0.0 0.0 0.00 0.00 0.00 93 1010.7
20260901102017 62 0 0.0 0.0 0.00 0.00 0.00 92 1010.8
20260901101548 62 0 0.0 0.0 0.00 0.00 0.00 93 1010.7
20260901101018 62 0 0.0 0.0 0.00 0.00 0.00 92 1010.6
20260901100520 62 0 0.0 0.0 0.00 0.00 0.00 92 1010.8
20260901100039 62 0 0.0 0.0 0.00 0.00 0.00 92 1010.7
20260901095517 62 0 0.0 0.0 0.00 0.00 0.00 93 1010.7
20260901095017 62 0 0.0 0.0 0.00 0.00 0.00 93 1010.7
20260901094540 61 0 0.0 2.0 0.00 0.00 0.00 91 1010.7
20260901094018 61 0 0.0 2.0 0.00 0.00 0.00 91 1010.7
20260901093519 62 0 0.0 1.0 0.00 0.00 0.00 91 1010.6
20260901093038 62 0 0.0 1.0 0.00 0.00 0.00 92 1010.6
20260901092518 62 0 0.0 1.0 0.00 0.00 0.00 92 1010.4
20260901092021 62 0 0.0 1.0 0.00 0.00 0.00 93 1010.6
20260901091535 62 0 0.0 1.0 0.00 0.00 0.00 93 1010.6
20260901091017 62 255 0.0 1.0 0.00 0.00 0.00 93 1010.7
20260901090520 63 0 0.0 1.0 0.00 0.00 0.00 93 1010.4
20260901090039 62 0 0.0 1.0 0.00 0.00 0.00 93 1010.4
20260901085519 62 0 0.0 0.0 0.00 0.00 0.00 93 1010.4
20260901085017 63 0 0.0 1.0 0.00 0.00 0.00 93 1010.4
20260901084538 62 0 0.0 1.0 0.00 0.00 0.00 93 1010.5
20260901084019 62 0 0.0 0.0 0.00 0.00 0.00 93 1010.4
20260901083518 63 0 0.0 1.0 0.00 0.00 0.00 93 1010.5
20260901083036 63 0 0.0 1.0 0.00 0.00 0.00 93 1010.5
20260901082520 62 255 0.0 1.0 0.00 0.00 0.00 93 1010.7
20260901082018 62 0 0.0 0.0 0.00 0.00 0.00 91 1010.6
20260901081548 62 0 0.0 1.0 0.00 0.00 0.00 91 1010.4
20260901081020 62 0 0.0 1.0 0.00 0.00 0.00 91 1010.4
20260901080518 63 0 0.0 1.0 0.00 0.00 0.00 92 1010.5
20260901080051 63 0 0.0 1.0 0.00 0.00 0.00 91 1010.4
20260901075520 63 0 0.0 1.0 0.00 0.00 0.00 91 1010.5
20260901075020 63 0 0.0 0.0 0.00 0.00 0.00 91 1010.7
20260901074547 63 0 0.0 0.0 0.00 0.00 0.00 92 1010.4
20260901074019 64 0 0.0 1.0 0.00 0.00 0.00 92 1010.4
20260901073517 64 0 0.0 1.0 0.00 0.00 0.00 92 1010.4
20260901073039 63 0 0.0 0.0 0.00 0.00 0.00 91 1010.4
20260901072520 63 0 0.0 0.0 0.00 0.00 0.00 91 1010.5
20260901072020 63 0 0.0 0.0 0.00 0.00 0.00 92 1010.6
20260901071536 63 0 0.0 0.0 0.00 0.00 0.00 92 1010.6
20260901071018 63 0 0.0 0.0 0.00 0.00 0.00 91 1010.5
20260901070518 64 0 0.0 0.0 0.00 0.00 0.00 90 1010.6
20260901070041 64 0 0.0 0.0 0.00 0.00 0.00 91 1010.8
20260901065522 64 0 0.0 0.0 0.00 0.00 0.00 92 1011.0
20260901065020 64 0 0.0 0.0 0.00 0.00 0.00 92 1011.0
20260901064539 64 0 0.0 0.0 0.00 0.00 0.00 91 1011.0
20260901064020 64 0 0.0 0.0 0.00 0.00 0.00 92 1011.0
20260901063517 65 0 0.0 0.0 0.00 0.00 0.00 93 1011.1
20260901063038 64 0 0.0 0.0 0.00 0.00 0.00 93 1011.0
20260901062518 64 0 0.0 0.0 0.00 0.00 0.00 92 1011.0
20260901062018 64 0 0.0 0.0 0.00 0.00 0.00 93 1011.2
20260901061541 64 0 0.0 0.0 0.00 0.00 0.00 93 1011.1
20260901061018 64 0 0.0 0.0 0.00 0.00 0.00 92 1011.2
20260901060520 64 0 0.0 0.0 0.00 0.00 0.00 92 1011.2
20260901060039 64 0 0.0 0.0 0.00 0.00 0.00 92 1011.3
20260901055522 64 0 0.0 0.0 0.00 0.00 0.00 91 1011.2
20260901055019 64 0 0.0 0.0 0.00 0.00 0.00 92 1011.1
20260901054541 64 0 0.0 0.0 0.00 0.00 0.00 92 1011.2
20260901054019 64 0 0.0 0.0 0.00 0.00 0.00 92 1011.1
20260901053520 64 0 0.0 0.0 0.00 0.00 0.00 91 1011.3
20260901053049 63 0 0.0 0.0 0.00 0.00 0.00 90 1011.2
20260901052518 63 0 0.0 0.0 0.00 0.00 0.00 90 1011.1
20260901052018 64 0 0.0 0.0 0.00 0.00 0.00 90 1011.3
20260901051556 64 0 0.0 0.0 0.00 0.00 0.00 90 1011.1
20260901051018 64 0 0.0 0.0 0.00 0.00 0.00 91 1011.2
20260901050520 64 0 0.0 0.0 0.00 0.00 0.00 91 1011.1
20260901050041 64 0 0.0 0.0 0.00 0.00 0.00 91 1011.0
20260901045519 64 0 0.0 0.0 0.00 0.00 0.00 90 1011.1
20260901045024 64 0 0.0 0.0 0.00 0.00 0.00 89 1011.0
20260901044537 64 0 0.0 0.0 0.00 0.00 0.00 88 1011.1
20260901044018 64 0 0.0 0.0 0.00 0.00 0.00 88 1011.0
20260901043518 64 0 0.0 0.0 0.00 0.00 0.00 88 1011.0
20260901043040 64 0 0.0 0.0 0.00 0.00 0.00 89 1011.0
20260901042518 64 0 0.0 0.0 0.00 0.00 0.00 88 1010.9
20260901042017 64 0 0.0 0.0 0.00 0.00 0.00 88 1010.9
20260901041551 64 0 0.0 0.0 0.00 0.00 0.00 87 1010.7
20260901041018 65 0 0.0 0.0 0.00 0.00 0.00 88 1010.6
20260901040520 65 0 0.0 0.0 0.00 0.00 0.00 88 1010.6
20260901040041 65 0 0.0 0.0 0.00 0.00 0.00 87 1010.4
20260901035520 65 0 0.0 0.0 0.00 0.00 0.00 87 1010.4
20260901035019 65 0 0.0 0.0 0.00 0.00 0.00 87 1010.4
20260901034538 65 0 0.0 0.0 0.00 0.00 0.00 89 1010.3
20260901034018 65 0 0.0 0.0 0.00 0.00 0.00 88 1010.3
20260901033518 65 0 0.0 0.0 0.00 0.00 0.00 87 1010.4
20260901033036 65 0 0.0 0.0 0.00 0.00 0.00 87 1010.5
20260901032518 66 0 0.0 0.0 0.00 0.00 0.00 86 1010.4
20260901032024 66 0 0.0 0.0 0.00 0.00 0.00 86 1010.4
20260901031551 66 0 0.0 0.0 0.00 0.00 0.00 87 1010.2
20260901031020 66 0 0.0 0.0 0.00 0.00 0.00 88 1010.5
20260901030518 66 0 0.0 0.0 0.00 0.00 0.00 87 1010.4
20260901030035 67 0 0.0 0.0 0.00 0.00 0.00 88 1010.5
20260901025519 67 0 0.0 0.0 0.00 0.00 0.00 88 1010.4
20260901025022 66 0 0.0 0.0 0.00 0.00 0.00 85 1010.4
20260901024536 67 0 0.0 1.0 0.00 0.00 0.00 84 1010.4
20260901024018 67 0 0.0 1.0 0.00 0.00 0.00 83 1010.2
20260901023520 67 0 0.0 1.0 0.00 0.00 0.00 83 1010.1
20260901023039 67 0 0.0 0.0 0.00 0.00 0.00 82 1010.1
20260901022520 68 0 0.0 0.0 0.00 0.00 0.00 82 1010.0
20260901022020 68 0 0.0 0.0 0.00 0.00 0.00 81 1010.1
20260901021536 68 0 0.0 0.0 0.00 0.00 0.00 81 1010.2
20260901021018 69 0 0.0 0.0 0.00 0.00 0.00 81 1010.0
20260901020520 69 0 0.0 0.0 0.00 0.00 0.00 80 1010.0
20260901020038 69 0 0.0 0.0 0.00 0.00 0.00 80 1010.1
20260901015517 70 0 0.0 0.0 0.00 0.00 0.00 80 1010.1
20260901015025 70 0 0.0 0.0 0.00 0.00 0.00 78 1010.2
20260901014546 71 0 0.0 0.0 0.00 0.00 0.00 78 1009.8
20260901014020 71 0 0.0 0.0 0.00 0.00 0.00 77 1009.9
20260901013520 71 0 0.0 0.0 0.00 0.00 0.00 77 1009.8
20260901013039 72 0 0.0 0.0 0.00 0.00 0.00 77 1009.8
20260901012519 72 0 0.0 0.0 0.00 0.00 0.00 76 1009.8
20260901012019 72 0 0.0 1.0 0.00 0.00 0.00 76 1009.5
20260901011536 73 0 0.0 1.0 0.00 0.00 0.00 75 1009.6
20260901011023 73 0 0.0 0.0 0.00 0.00 0.00 74 1009.5
20260901010519 74 0 0.0 0.0 0.00 0.00 0.00 73 1009.6
20260901010042 74 0 0.0 1.0 0.00 0.00 0.00 72 1009.5
20260901005518 75 0 0.0 1.0 0.00 0.00 0.00 72 1009.4
20260901005019 75 0 0.0 0.0 0.00 0.00 0.00 71 1009.5
20260901004543 76 0 0.0 0.0 0.00 0.00 0.00 69 1009.6
20260901004017 76 0 0.0 0.0 0.00 0.00 0.00 67 1009.7
20260901003521 77 0 0.0 0.0 0.00 0.00 0.00 66 1009.6
20260901003038 77 0 0.0 1.0 0.00 0.00 0.00 66 1009.6
20260901002518 77 0 0.0 1.0 0.00 0.00 0.00 66 1009.6
20260901002020 78 0 0.0 1.0 0.00 0.00 0.00 65 1009.7
20260901001550 78 0 0.0 1.0 0.00 0.00 0.00 64 1009.5
20260901001018 78 0 0.0 1.0 0.00 0.00 0.00 63 1009.5
20260901000518 79 0 0.0 1.0 0.00 0.00 0.00 64 1009.6
20260901000036 79 255 0.0 2.0 0.00 0.00 0.00 66 1009.7
20260831235517 79 255 0.0 3.0 0.00 0.00 0.00 63 1009.5
20260831235019 79 257 1.0 4.0 0.00 0.00 0.00 63 1009.5
20260831234557 79 259 2.0 4.0 0.00 0.00 0.00 63 1009.6
20260831234019 80 257 2.0 4.0 0.00 0.00 0.00 62 1009.6
20260831233519 80 257 1.0 4.0 0.00 0.00 0.00 62 1009.7
20260831233044 80 254 2.0 4.0 0.00 0.00 0.00 64 1009.6
20260831232519 81 255 2.0 4.0 0.00 0.00 0.00 60 1009.6
20260831232018 81 0 0.0 2.0 0.00 0.00 0.00 60 1009.6
20260831231538 81 0 0.0 1.0 0.00 0.00 0.00 56 1009.6
20260831231020 81 265 0.0 1.0 0.00 0.00 0.00 56 1009.6
20260831230517 81 0 0.0 2.0 0.00 0.00 0.00 55 1009.6
20260831230036 82 0 0.0 2.0 0.00 0.00 0.00 56 1009.6
20260831225524 82 0 0.0 2.0 0.00 0.00 0.00 57 1009.6
20260831225019 82 0 0.0 4.0 0.00 0.00 0.00 55 1009.6
20260831224537 82 263 1.0 4.0 0.00 0.00 0.00 54 1009.5
20260831224020 83 258 2.0 4.0 0.00 0.00 0.00 54 1009.5
20260831223520 83 259 0.0 3.0 0.00 0.00 0.00 52 1009.5
20260831223037 83 265 1.0 3.0 0.00 0.00 0.00 50 1009.4
20260831222520 83 0 0.0 3.0 0.00 0.00 0.00 47 1009.5
20260831222017 83 0 1.0 3.0 0.00 0.00 0.00 49 1009.5
20260831221537 83 0 0.0 2.0 0.00 0.00 0.00 51 1009.4
20260831221019 83 0 0.0 2.0 0.00 0.00 0.00 47 1009.3
20260831220522 83 0 0.0 3.0 0.00 0.00 0.00 47 1009.3
20260831220035 83 0 1.0 4.0 0.00 0.00 0.00 48 1009.3
20260831215516 84 264 1.0 4.0 0.00 0.00 0.00 47 1009.5
20260831215020 84 263 2.0 4.0 0.00 0.00 0.00 44 1009.5
20260831214537 85 263 1.0 3.0 0.00 0.00 0.00 45 1009.3
20260831214020 85 0 0.0 1.0 0.00 0.00 0.00 46 1009.4
20260831213520 85 0 0.0 1.0 0.00 0.00 0.00 49 1009.2
20260831213037 85 0 0.0 2.0 0.00 0.00 0.00 44 1009.0
20260831212519 85 0 0.0 2.0 0.00 0.00 0.00 46 1009.2
20260831212018 86 170 0.0 1.0 0.00 0.00 0.00 40 1009.3
20260831211538 86 0 0.0 1.0 0.00 0.00 0.00 42 1009.4
20260831211017 86 0 0.0 2.0 0.00 0.00 0.00 42 1009.3
20260831210520 86 0 0.0 2.0 0.00 0.00 0.00 41 1009.3